Hourly Data Report for September 16, 2017

All times are specified in Local Standard Time (LST). Add 1 hour to adjust for Daylight Saving Time where and when it is observed.

GRISE FIORD CLIMATE
NUNAVUT

76°25'22.040" N
82°54'08.020" W
44.50 m
2402351
71971
NGC

Download Data

Hourly Data (September 2017)
Hourly Data Report for September 16, 2017
Temp Definition
°C
Dew Point Temp Definition
°C
Rel Hum Definition
%
Wind Dir Definition
10's deg

Wind Spd Definition
km/h
Visibility Definition
km
Stn Press Definition
kPa
Hmdx Definition


Wind Chill Definition


Weather Definition


TIME
00:00 -2.4 -2.6 98 14 5   99.86   -4 LegendNANA
01:00 -1.8 -1.9 99 1 2   99.83   -3 LegendNANA
02:00 -1.1 -1.2 99 16 7   99.81   -4 LegendNANA
03:00 -1.2 -1.2 100 23 16   99.81   -6 LegendNANA
04:00 -2.4 -2.9 96 25 25   99.81   -9 LegendNANA
05:00 -2.6 -4.2 89 25 27   99.81   -10 LegendNANA
06:00 -2.8 -5.2 84 24 32   99.86   -10 LegendNANA
07:00 -4.1 -8.7 70 25 33   99.93   -12 LegendNANA
08:00 -5.3 -8.6 78 25 37   99.96   -14 LegendNANA
09:00 -5.7 -8.9 78 26 32   100.00   -14 LegendNANA
10:00 -5.9 -9.0 79 25 38   99.99   -15 LegendNANA
11:00 -6.1 -9.8 75 28 16   99.94   -12 LegendNANA
12:00 -6.4 -11.3 68 30 21   99.97   -13 LegendNANA
13:00 -5.9 -10.5 70 28 23   99.98   -13 LegendNANA
14:00 -6.0 -11.6 65 28 29   100.02   -14 LegendNANA
15:00 -5.7 -12.7 58 31 21   100.09   -13 LegendNANA
16:00 -5.7 -12.6 59 31 22   100.16   -13 LegendNANA
17:00 -5.4 -12.6 57 30 27   100.24   -13 LegendNANA
18:00 -5.1 -11.2 62 31 16   100.31   -11 LegendNANA
19:00 -5.0 -10.5 65 26 14   100.42   -10 LegendNANA
20:00 -6.2 -11.1 68 2 6   100.44   -9 LegendNANA
21:00 -4.7 -10.9 62 27 6   100.46   -7 LegendNANA
22:00 -6.9 -10.8 73 6 3   100.47   -8 LegendNANA
23:00 -4.6 -7.6 79 25 20   100.47   -11 LegendNANA

Notes on Data Quality.

Legend

  • E = Estimated
  • M = Missing
  • NA = Not Available
  • ‡ = Partner data that is not subject to review by the National Climate Archives
Date modified: